Starlink 31985

operational
NORAD ID: 60036 Int'l Des: 2024-111 Owner: SPXS Country: US Constellation: starlink
LEOCIRCULAR

关于 Starlink 31985

正在加载描述...

实时位置

正在加载3D地球...

即将过境

高度历史

Altitude vs Time

uPlot chart will show altitude changes over time

两行轨道根数

1 60036U 24111W 26035.84688344 -.00000745 00000-0 -13030-4 0 9994
2 60036 53.1589 228.2770 0001345 86.3314 273.7841 15.30187967 93948
Epoch: Feb 4, 2026 • Age: 20 hours

当前状态

高度 490.2 km
速度 7.62 km/s
星下点 -42.44°S, 69.04°E
发射日期 Jun 8, 2024
运行时间 1.6 years
类型 internet

技术详情

分类 Payload
质量 730.00 kg
干质量 700.00 kg
总质量 730.00 kg
长度 0.30 m
直径 4.10 m
跨度 29.00 m
形状 Box + pan
制造商 SPXS
平台类型 Starlink V2M
阶段状态 In Orbit
所有者/国家 SPXS/US

大型星座

Loading constellations...